Weather History for PPIZ - August, 2014

Change the Weather History Date:

Sunday, August 17, 2014

  Actual Average Record
Temperature  
Mean Temperature 40 °F -  
Max Temperature 43 °F 45 °F 65 °F (2007)
Min Temperature 37 °F 40 °F 32 °F (2006)
Degree Days  
Heating Degree Days 25    
Moisture  
Dew Point 39 °F    
Average Humidity 94    
Maximum Humidity 100    
Minimum Humidity 86    
Precipitation  
Precipitation 0.00 in - - ()
Sea Level Pressure  
Sea Level Pressure 29.57 in    
Wind  
Wind Speed 5 mph (NW)    
Max Wind Speed 9 mph    
Max Gust Speed -    
Visibility 4 miles    
Events Fog , Rain    
Averages and records for this station are not official NWS values.
T = Trace of Precipitation, MM = Missing Value Source: NWS Daily Summary

Daily Weather History Graph

Daily Weather History Graph

Search for Another Location

Airport or City:

Trip Planner

Search our weather history database for the weather conditions in past years. The results will help you decide how hot, cold, wet, or windy it might be!

Date:

Astronomy

Aug. 17, 2014 Rise Set
Actual Time 6:03 AM AKDT 11:44 PM AKDT
Civil Twilight 4:06 AM AKDT 1:34 AM AKDT
Nautical Twilight Sun does not rise Sun does not rise
Astronomical Twilight Sun does not rise Sun does not rise
Moon 11:23 PM AKDT (8/17) 6:58 PM AKDT (8/17)
Length of Visible Light 21h 27m
Length of Day
17h 41m
Waning Gibbous, 47% of the Moon is Illuminated
Aug 17
Waning Gibbous
Aug 25
New
Sep 2
First Quarter
Sep 8
Full
Sep 15
Last Quarter

Hourly Weather History & Observations

Time (AKDT) Temp. Windchill Dew Point Humidity Pressure Visibility Wind Dir Wind Speed Gust Speed Precip Events Conditions
12:11 AM 39.2 °F 33.6 °F 37.4 °F 93% 29.52 in 0.5 mi NNW 8.1 mph - N/A Fog Fog
12:19 AM 39.2 °F 33.6 °F 37.4 °F 93% 29.52 in 0.8 mi NNW 8.1 mph - N/A   Overcast
12:26 AM 39.2 °F 34.2 °F 37.4 °F 93% 29.52 in 0.5 mi NNW 6.9 mph - N/A Fog Fog
12:56 AM 38.8 °F 34.6 °F 37.9 °F 97% 29.54 in 0.5 mi NNW 5.8 mph - N/A Fog Fog
12:59 AM 39.2 °F 35.0 °F 37.4 °F 93% 29.52 in 1.0 mi NNW 5.8 mph - N/A   Overcast
1:02 AM 39.2 °F 34.2 °F 37.4 °F 93% 29.53 in 1.5 mi NNW 6.9 mph - N/A   Overcast
1:16 AM 39.2 °F 35.0 °F 37.4 °F 93% 29.52 in 1.0 mi NW 5.8 mph - N/A   Overcast
1:24 AM 39.2 °F 33.6 °F 37.4 °F 93% 29.52 in 0.5 mi NW 8.1 mph - N/A Fog Fog
1:32 AM 39.2 °F 35.0 °F 37.4 °F 93% 29.53 in 1.0 mi NW 5.8 mph - N/A   Overcast
1:38 AM 39.2 °F 34.2 °F 37.4 °F 93% 29.53 in 0.5 mi WNW 6.9 mph - N/A Fog Fog
1:56 AM 37.9 °F 32.7 °F 37.9 °F 100% 29.54 in 0.2 mi WNW 6.9 mph - N/A Fog Fog
2:56 AM 37.9 °F 33.5 °F 36.9 °F 96% 29.55 in 0.2 mi WNW 5.8 mph - 0.00 in Fog Fog
3:05 AM 37.4 °F 34.9 °F 37.4 °F 100% 29.54 in 0.5 mi WNW 3.5 mph - N/A Fog Fog
3:13 AM 37.4 °F 33.8 °F 37.4 °F 100% 29.53 in 1.0 mi West 4.6 mph - N/A   Overcast
3:20 AM 37.4 °F 33.8 °F 37.4 °F 100% 29.53 in 0.5 mi WNW 4.6 mph - N/A Fog Fog
3:56 AM 37.9 °F 33.5 °F 36.9 °F 96% 29.55 in 0.2 mi WNW 5.8 mph - N/A Fog Fog
4:12 AM 37.4 °F 32.8 °F 37.4 °F 100% 29.54 in 0.5 mi WNW 5.8 mph - N/A Fog Fog
4:23 AM 37.4 °F 33.8 °F 37.4 °F 100% 29.54 in 1.0 mi WNW 4.6 mph - N/A   Overcast
4:26 AM 37.4 °F 32.8 °F 37.4 °F 100% 29.55 in 1.5 mi WNW 5.8 mph - N/A   Overcast
4:32 AM 37.4 °F 33.8 °F 37.4 °F 100% 29.55 in 3.0 mi WNW 4.6 mph - N/A   Overcast
4:56 AM 37.9 °F 33.5 °F 36.9 °F 96% 29.56 in 6.0 mi WNW 5.8 mph - N/A   Overcast
5:47 AM 37.4 °F - 37.4 °F 100% 29.55 in 10.0 mi Calm Calm - N/A   Overcast
5:56 AM 37.9 °F 34.4 °F 37.9 °F 100% 29.56 in 10.0 mi WNW 4.6 mph - N/A   Overcast
6:45 AM 39.2 °F - 37.4 °F 93% 29.55 in 2.0 mi Calm Calm - N/A   Overcast
6:56 AM 39.2 °F - 37.4 °F 93% 29.55 in 1.8 mi Calm Calm - N/A   Overcast
7:29 AM 39.2 °F - 37.4 °F 93% 29.56 in 1.0 mi Calm Calm - N/A   Overcast
7:56 AM 38.8 °F - 37.9 °F 97% 29.57 in 1.0 mi Calm Calm - N/A   Overcast
8:03 AM 39.2 °F - 37.4 °F 93% 29.55 in 1.0 mi Calm Calm - N/A   Overcast
8:10 AM 39.2 °F - 39.2 °F 100% 29.56 in 1.5 mi Calm Calm - N/A   Overcast
8:24 AM 39.2 °F - 39.2 °F 100% 29.56 in 1.0 mi Calm Calm - N/A   Overcast
8:41 AM 39.2 °F - 39.2 °F 100% 29.56 in 1.2 mi Calm Calm - N/A   Overcast
8:56 AM 39.9 °F - 38.8 °F 96% 29.57 in 1.0 mi Calm Calm - N/A   Overcast
9:07 AM 39.2 °F - 39.2 °F 100% 29.56 in 1.2 mi Calm Calm - N/A   Overcast
9:20 AM 39.2 °F - 39.2 °F 100% 29.56 in 1.8 mi Calm Calm - N/A   Overcast
9:29 AM 39.2 °F - 39.2 °F 100% 29.56 in 2.0 mi Calm Calm - N/A   Overcast
9:41 AM 39.2 °F - 39.2 °F 100% 29.56 in 4.0 mi Calm Calm - N/A   Overcast
9:56 AM 41.0 °F - 39.2 °F 93% 29.56 in 10.0 mi Calm Calm - N/A   Overcast
10:30 AM 41.0 °F - 39.2 °F 93% 29.56 in 8.0 mi Calm Calm - N/A   Overcast
10:47 AM 41.0 °F - 39.2 °F 93% 29.56 in 2.0 mi Calm Calm - N/A   Overcast
10:56 AM 41.0 °F - 39.9 °F 96% 29.57 in 1.5 mi Calm Calm - N/A   Overcast
11:19 AM 41.0 °F - 39.2 °F 93% 29.57 in 1.0 mi Calm Calm - N/A   Overcast
11:29 AM 41.0 °F - 39.2 °F 93% 29.57 in 0.8 mi Calm Calm - N/A   Overcast
11:42 AM 41.0 °F - 39.2 °F 93% 29.57 in 1.0 mi Calm Calm - N/A   Overcast
11:56 AM 41.0 °F - 39.9 °F 96% 29.58 in 1.0 mi Calm Calm - N/A   Overcast
12:12 PM 41.0 °F - 39.2 °F 93% 29.57 in 1.2 mi Calm Calm - N/A   Overcast
12:21 PM 41.0 °F - 39.2 °F 93% 29.57 in 1.5 mi Calm Calm - N/A   Overcast
12:39 PM 41.0 °F 38.0 °F 39.2 °F 93% 29.57 in 2.0 mi WNW 4.6 mph - N/A   Overcast
12:56 PM 41.0 °F 38.0 °F 39.9 °F 96% 29.58 in 4.0 mi NW 4.6 mph - N/A   Overcast
1:43 PM 42.8 °F 39.3 °F 39.2 °F 87% 29.57 in 10.0 mi NW 5.8 mph - N/A   Overcast
1:56 PM 41.9 °F 39.0 °F 39.9 °F 93% 29.58 in 10.0 mi NW 4.6 mph - N/A   Overcast
2:19 PM 42.8 °F 40.1 °F 39.2 °F 87% 29.57 in 10.0 mi NW 4.6 mph - 0.00 in Rain Light Rain
2:34 PM 42.8 °F 39.3 °F 39.2 °F 87% 29.57 in 10.0 mi WNW 5.8 mph - 0.00 in   Mostly Cloudy
2:56 PM 41.9 °F 37.5 °F 39.9 °F 93% 29.58 in 10.0 mi WNW 6.9 mph - 0.00 in   Mostly Cloudy
3:10 PM 42.8 °F 38.6 °F 39.2 °F 87% 29.57 in 10.0 mi NW 6.9 mph - N/A   Scattered Clouds
3:42 PM 42.8 °F 38.6 °F 39.2 °F 87% 29.57 in 10.0 mi NW 6.9 mph - N/A   Partly Cloudy
3:56 PM 43.0 °F 38.8 °F 39.9 °F 89% 29.58 in 10.0 mi NW 6.9 mph - N/A   Scattered Clouds
4:04 PM 42.8 °F 39.3 °F 39.2 °F 87% 29.57 in 10.0 mi NW 5.8 mph - N/A   Mostly Cloudy
4:11 PM 42.8 °F 39.3 °F 39.2 °F 87% 29.57 in 10.0 mi NNW 5.8 mph - N/A   Scattered Clouds
4:56 PM 43.9 °F 39.9 °F 39.9 °F 86% 29.59 in 10.0 mi NW 6.9 mph - N/A   Mostly Cloudy
5:32 PM 42.8 °F 38.0 °F 39.2 °F 87% 29.58 in 10.0 mi NW 8.1 mph - N/A   Mostly Cloudy
5:56 PM 43.0 °F 38.8 °F 39.9 °F 89% 29.60 in 10.0 mi NW 6.9 mph - N/A   Mostly Cloudy
6:56 PM 43.0 °F 38.8 °F 41.0 °F 93% 29.60 in 4.0 mi NNW 6.9 mph - N/A   Overcast
7:25 PM 42.8 °F 40.1 °F 39.2 °F 87% 29.59 in 10.0 mi North 4.6 mph - N/A   Mostly Cloudy
7:56 PM 43.0 °F 39.5 °F 39.9 °F 89% 29.61 in 10.0 mi NW 5.8 mph - N/A   Mostly Cloudy
8:56 PM 43.0 °F 40.3 °F 39.9 °F 89% 29.61 in 10.0 mi NW 4.6 mph - N/A   Mostly Cloudy
9:16 PM 42.8 °F 37.5 °F 39.2 °F 87% 29.60 in 10.0 mi NW 9.2 mph - N/A   Scattered Clouds
9:25 PM 42.8 °F 40.1 °F 39.2 °F 87% 29.60 in 10.0 mi NNW 4.6 mph - N/A   Mostly Cloudy
9:37 PM 42.8 °F 38.6 °F 39.2 °F 87% 29.60 in 10.0 mi NW 6.9 mph - N/A   Overcast
9:56 PM 41.9 °F 39.0 °F 39.9 °F 93% 29.62 in 6.0 mi NNW 4.6 mph - N/A   Overcast
10:12 PM 42.8 °F 40.1 °F 39.2 °F 87% 29.61 in 2.0 mi NW 4.6 mph - N/A   Overcast
10:17 PM 42.8 °F 40.1 °F 39.2 °F 87% 29.61 in 1.2 mi WNW 4.6 mph - N/A   Overcast
10:19 PM 42.8 °F 39.3 °F 39.2 °F 87% 29.61 in 0.8 mi NW 5.8 mph - N/A   Overcast
10:24 PM 41.0 °F 39.0 °F 39.2 °F 93% 29.61 in 0.2 mi NW 3.5 mph - N/A Fog Fog
10:42 PM 41.0 °F 37.1 °F 39.2 °F 93% 29.62 in 0.5 mi NW 5.8 mph - N/A Fog Fog
10:48 PM 41.0 °F 37.1 °F 39.2 °F 93% 29.62 in 1.0 mi NW 5.8 mph - N/A   Overcast
10:56 PM 41.0 °F 37.1 °F 39.9 °F 96% 29.63 in 1.8 mi NW 5.8 mph - N/A   Overcast
11:09 PM 41.0 °F 37.1 °F 39.2 °F 93% 29.62 in 3.0 mi NW 5.8 mph - N/A   Overcast
11:17 PM 41.0 °F 36.4 °F 39.2 °F 93% 29.62 in 1.8 mi NW 6.9 mph - N/A   Overcast
11:32 PM 41.0 °F 37.1 °F 39.2 °F 93% 29.62 in 3.0 mi NW 5.8 mph - N/A   Overcast
11:56 PM 41.0 °F 37.1 °F 39.9 °F 96% 29.63 in 6.0 mi NW 5.8 mph - N/A   Overcast